Time,TemperatureF,DewpointF,PressureIn,WindDirection,WindDirectionDegrees,WindSpeedMPH,WindSpeedGustMPH,Humidity,HourlyPrecipIn,Conditions,Clouds,dailyrainin,SoftwareType,DateUTC
2013-06-24 00:02:00,68.0,64.0,30.19,North,0,0.0,1.0,87,0.00,,,0.00,,2013-06-24 04:02:00,
2013-06-24 00:12:00,67.0,64.0,30.20,North,0,0.0,1.0,89,0.00,,,0.00,,2013-06-24 04:12:00,
2013-06-24 00:22:00,67.0,63.0,30.20,North,0,0.0,0.0,88,0.00,,,0.00,,2013-06-24 04:22:00,
2013-06-24 00:33:00,67.0,63.0,30.20,North,0,0.0,0.0,88,0.00,,,0.00,,2013-06-24 04:33:00,
2013-06-24 00:43:00,67.0,63.0,30.20,North,0,0.0,0.0,88,0.00,,,0.00,,2013-06-24 04:43:00,
2013-06-24 00:52:00,67.0,63.0,30.21,North,0,0.0,0.0,88,0.00,,,0.00,,2013-06-24 04:52:00,
2013-06-24 01:02:00,66.0,63.0,30.21,North,0,0.0,0.0,89,0.00,,,0.00,,2013-06-24 05:02:00,
2013-06-24 01:12:00,66.0,63.0,30.20,North,0,0.0,0.0,91,0.00,,,0.00,,2013-06-24 05:12:00,
2013-06-24 01:22:00,66.0,64.0,30.20,North,0,0.0,0.0,92,0.00,,,0.00,,2013-06-24 05:22:00,
2013-06-24 01:37:00,66.0,64.0,30.20,North,0,0.0,0.0,92,0.00,,,0.00,,2013-06-24 05:37:00,
2013-06-24 01:46:00,66.0,64.0,30.20,North,0,0.0,0.0,92,0.00,,,0.00,,2013-06-24 05:46:00,
2013-06-24 01:53:00,66.0,64.0,30.20,North,0,0.0,0.0,92,0.00,,,0.00,,2013-06-24 05:53:00,
2013-06-24 02:09:00,66.0,64.0,30.20,North,0,0.0,0.0,92,0.00,,,0.00,,2013-06-24 06:09:00,
2013-06-24 02:15:00,65.0,63.0,30.20,North,0,0.0,0.0,94,0.00,,,0.00,,2013-06-24 06:15:00,
2013-06-24 02:24:00,65.0,64.0,30.19,North,0,0.0,0.0,95,0.00,,,0.00,,2013-06-24 06:24:00,
2013-06-24 02:39:00,64.0,62.0,30.19,North,0,0.0,0.0,94,0.00,,,0.00,,2013-06-24 06:39:00,
2013-06-24 02:45:00,64.0,62.0,30.19,North,0,0.0,0.0,94,0.00,,,0.00,,2013-06-24 06:45:00,
2013-06-24 03:06:00,64.0,62.0,30.19,North,0,0.0,0.0,94,0.00,,,0.00,,2013-06-24 07:06:00,
2013-06-24 03:15:00,63.0,62.0,30.20,North,0,0.0,0.0,95,0.00,,,0.00,,2013-06-24 07:15:00,
2013-06-24 03:31:00,63.0,62.0,30.20,North,0,0.0,0.0,95,0.00,,,0.00,,2013-06-24 07:31:00,
2013-06-24 03:37:00,63.0,62.0,30.20,North,0,0.0,0.0,95,0.00,,,0.00,,2013-06-24 07:37:00,
2013-06-24 03:42:00,62.0,61.0,30.19,North,0,0.0,0.0,96,0.00,,,0.00,,2013-06-24 07:42:00,
2013-06-24 03:48:00,63.0,62.0,30.20,North,0,0.0,0.0,96,0.00,,,0.00,,2013-06-24 07:48:00,
2013-06-24 03:55:00,63.0,62.0,30.20,North,0,0.0,0.0,96,0.00,,,0.00,,2013-06-24 07:55:00,
2013-06-24 04:05:00,62.0,61.0,30.19,North,0,0.0,0.0,96,0.00,,,0.00,,2013-06-24 08:05:00,
2013-06-24 04:14:00,62.0,61.0,30.19,North,0,0.0,0.0,96,0.00,,,0.00,,2013-06-24 08:14:00,
2013-06-24 05:16:00,61.0,60.0,30.19,North,0,0.0,0.0,96,0.00,,,0.00,,2013-06-24 09:16:00,
2013-06-24 05:27:00,61.0,60.0,30.19,North,0,0.0,0.0,96,0.00,,,0.00,,2013-06-24 09:27:00,
2013-06-24 05:38:00,61.0,60.0,30.19,North,0,0.0,0.0,96,0.00,,,0.00,,2013-06-24 09:38:00,
2013-06-24 05:47:00,61.0,60.0,30.19,North,0,0.0,0.0,96,0.00,,,0.00,,2013-06-24 09:47:00,
2013-06-24 06:00:00,61.0,-99.9,30.20,North,0,0.0,1.0,-999,0.00,,,0.00,,2013-06-24 10:00:00,
2013-06-24 06:15:00,60.0,59.0,30.20,North,0,0.0,0.0,96,0.00,,,0.00,,2013-06-24 10:15:00,
2013-06-24 06:24:00,60.0,59.0,30.20,North,0,0.0,0.0,97,0.00,,,0.00,,2013-06-24 10:24:00,
2013-06-24 06:38:00,60.0,59.0,30.20,North,0,0.0,1.0,97,0.00,,,0.00,,2013-06-24 10:38:00,
2013-06-24 06:50:00,60.0,59.0,30.20,North,0,0.0,1.0,97,0.00,,,0.00,,2013-06-24 10:50:00,
2013-06-24 07:16:00,61.0,60.0,30.22,North,0,0.0,0.0,98,0.00,,,0.00,,2013-06-24 11:16:00,
2013-06-24 07:34:00,62.0,61.0,30.21,North,0,0.0,1.0,98,0.00,,,0.00,,2013-06-24 11:34:00,
2013-06-24 07:47:00,62.0,61.0,30.21,North,0,0.0,1.0,98,0.00,,,0.00,,2013-06-24 11:47:00,
2013-06-24 07:58:00,63.0,62.0,30.22,North,0,0.0,2.0,97,0.00,,,0.00,,2013-06-24 11:58:00,
2013-06-24 08:06:00,63.0,62.0,30.22,North,0,0.0,2.0,97,0.00,,,0.00,,2013-06-24 12:06:00,
2013-06-24 08:17:00,63.0,62.0,30.22,North,0,0.0,2.0,97,0.00,,,0.00,,2013-06-24 12:17:00,
2013-06-24 08:25:00,65.0,62.0,30.22,SSW,211,3.0,5.0,90,0.00,,,0.00,,2013-06-24 12:25:00,
2013-06-24 08:36:00,65.0,62.0,30.22,SSW,211,3.0,5.0,90,0.00,,,0.00,,2013-06-24 12:36:00,
2013-06-24 08:49:00,67.0,64.0,30.22,North,0,0.0,3.0,90,0.00,,,0.00,,2013-06-24 12:49:00,
2013-06-24 09:24:00,72.0,67.0,30.22,North,0,0.0,3.0,84,0.00,,,0.00,,2013-06-24 13:24:00,
2013-06-24 09:45:00,74.0,66.0,30.22,SW,230,3.0,7.0,76,0.00,,,0.00,,2013-06-24 13:45:00,
2013-06-24 09:56:00,74.0,66.0,30.22,SW,230,3.0,7.0,76,0.00,,,0.00,,2013-06-24 13:56:00,
2013-06-24 10:16:00,75.0,67.0,30.21,WSW,238,3.0,9.0,75,0.00,,,0.00,,2013-06-24 14:16:00,
2013-06-24 10:25:00,75.0,67.0,30.21,WSW,238,3.0,9.0,75,0.00,,,0.00,,2013-06-24 14:25:00,
2013-06-24 10:38:00,76.0,65.0,30.21,WSW,238,4.0,11.0,69,0.00,,,0.00,,2013-06-24 14:38:00,
2013-06-24 10:59:00,77.0,66.0,30.22,WSW,242,5.0,12.0,69,0.00,,,0.00,,2013-06-24 14:59:00,
2013-06-24 11:06:00,77.0,66.0,30.22,WSW,242,5.0,12.0,69,0.00,,,0.00,,2013-06-24 15:06:00,
2013-06-24 11:15:00,77.0,66.0,30.22,WSW,242,5.0,12.0,69,0.00,,,0.00,,2013-06-24 15:15:00,
2013-06-24 11:27:00,78.0,64.0,30.22,SW,233,6.0,13.0,63,0.00,,,0.00,,2013-06-24 15:27:00,
2013-06-24 11:37:00,78.0,64.0,30.22,SW,233,6.0,13.0,63,0.00,,,0.00,,2013-06-24 15:37:00,
2013-06-24 11:49:00,78.0,64.0,30.21,SW,221,4.0,13.0,62,0.00,,,0.00,,2013-06-24 15:49:00,
2013-06-24 11:57:00,78.0,64.0,30.21,SW,221,4.0,13.0,62,0.00,,,0.00,,2013-06-24 15:57:00,
2013-06-24 13:47:00,76.0,65.0,30.18,SW,229,6.0,9.0,70,0.00,,,0.06,,2013-06-24 17:47:00,
2013-06-24 14:36:00,80.0,66.0,30.17,SW,234,4.0,9.0,63,0.00,,,0.06,,2013-06-24 18:36:00,
2013-06-24 14:46:00,81.0,67.0,30.16,SW,223,5.0,11.0,62,0.00,,,0.06,,2013-06-24 18:46:00,
2013-06-24 14:54:00,81.0,67.0,30.16,SW,223,5.0,11.0,62,0.00,,,0.06,,2013-06-24 18:54:00,
2013-06-24 15:37:00,76.0,64.0,30.15,SW,230,7.0,15.0,67,0.00,,,0.06,,2013-06-24 19:37:00,
2013-06-24 15:45:00,74.0,63.0,30.15,WSW,238,6.0,14.0,69,0.00,,,0.06,,2013-06-24 19:45:00,
2013-06-24 16:05:00,76.0,64.0,30.14,SW,236,3.0,12.0,66,0.00,,,0.06,,2013-06-24 20:05:00,
2013-06-24 16:45:00,79.0,61.0,30.13,SSW,206,5.0,10.0,55,0.00,,,0.06,,2013-06-24 20:45:00,
2013-06-24 16:54:00,79.0,61.0,30.13,SW,215,4.0,10.0,55,0.00,,,0.06,,2013-06-24 20:54:00,
2013-06-24 17:46:00,80.0,63.0,30.12,WSW,240,2.0,9.0,56,0.00,,,0.06,,2013-06-24 21:46:00,
2013-06-24 17:54:00,80.0,63.0,30.12,WSW,240,2.0,9.0,56,0.00,,,0.06,,2013-06-24 21:54:00,
2013-06-24 18:06:00,79.0,63.0,30.11,West,268,4.0,12.0,58,0.00,,,0.06,,2013-06-24 22:06:00,
2013-06-24 18:15:00,79.0,63.0,30.11,West,269,4.0,11.0,58,0.00,,,0.06,,2013-06-24 22:15:00,
2013-06-24 18:24:00,79.0,63.0,30.11,West,269,4.0,11.0,58,0.00,,,0.06,,2013-06-24 22:24:00,
2013-06-24 18:36:00,79.0,63.0,30.11,West,269,4.0,11.0,58,0.00,,,0.06,,2013-06-24 22:36:00,
2013-06-24 18:48:00,79.0,63.0,30.11,West,269,4.0,11.0,58,0.00,,,0.06,,2013-06-24 22:48:00,
2013-06-24 18:55:00,80.0,65.0,30.16,SW,225,8.0,16.0,61,0.00,,,0.06,,2013-06-24 22:55:00,
2013-06-24 19:06:00,79.0,65.0,30.11,SW,231,2.0,6.0,62,0.00,,,0.06,,2013-06-24 23:06:00,
2013-06-24 19:14:00,78.0,65.0,30.11,SW,225,2.0,5.0,64,0.00,,,0.06,,2013-06-24 23:14:00,
2013-06-24 19:27:00,78.0,65.0,30.11,SW,225,2.0,5.0,64,0.00,,,0.06,,2013-06-24 23:27:00,
2013-06-24 19:45:00,78.0,64.0,30.11,SW,219,3.0,8.0,62,0.00,,,0.06,,2013-06-24 23:45:00,
2013-06-24 19:54:00,78.0,64.0,30.11,SW,222,2.0,7.0,62,0.00,,,0.06,,2013-06-24 23:54:00,
2013-06-24 20:06:00,78.0,64.0,30.11,SW,222,2.0,7.0,62,0.00,,,0.06,,2013-06-25 00:06:00,
2013-06-24 20:13:00,78.0,64.0,30.11,SW,222,2.0,7.0,62,0.00,,,0.06,,2013-06-25 00:13:00,
2013-06-24 20:24:00,77.0,64.0,30.10,SW,217,1.0,8.0,65,0.00,,,0.06,,2013-06-25 00:24:00,
2013-06-24 20:34:00,77.0,64.0,30.10,SW,217,1.0,8.0,65,0.00,,,0.06,,2013-06-25 00:34:00,
2013-06-24 20:48:00,77.0,64.0,30.10,SW,217,1.0,8.0,65,0.00,,,0.06,,2013-06-25 00:48:00,
2013-06-24 21:04:00,75.0,64.0,30.10,North,0,0.0,3.0,68,0.00,,,0.06,,2013-06-25 01:04:00,
2013-06-24 21:18:00,75.0,64.0,30.10,North,0,0.0,3.0,68,0.00,,,0.06,,2013-06-25 01:18:00,
2013-06-24 21:24:00,75.0,64.0,30.10,North,0,0.0,3.0,68,0.00,,,0.06,,2013-06-25 01:24:00,
2013-06-24 21:37:00,75.0,64.0,30.10,North,0,0.0,3.0,68,0.00,,,0.06,,2013-06-25 01:37:00,
2013-06-24 22:06:00,72.0,64.0,30.12,North,0,0.0,0.0,76,0.00,,,0.06,,2013-06-25 02:06:00,
2013-06-24 22:25:00,71.0,64.0,30.13,North,0,0.0,1.0,78,0.00,,,0.06,,2013-06-25 02:25:00,
2013-06-24 22:37:00,70.0,64.0,30.13,North,0,0.0,5.0,80,0.00,,,0.06,,2013-06-25 02:37:00,
2013-06-24 22:46:00,69.0,63.0,30.14,North,0,0.0,1.0,82,0.00,,,0.06,,2013-06-25 02:46:00,
2013-06-24 23:08:00,69.0,63.0,30.13,North,0,0.0,0.0,82,0.00,,,0.06,,2013-06-25 03:08:00,